Location: Christianberg
(48.9086°N, 14.0209°E)
Time: 22:54:23
(UTC+00:00)

Cosmos 1437 - Pass Details

Date: 20 June 2021
Orbit: 332 x 333 km, 81.1° (Epoch: 04 August)

Event Time Altitude Azimuth Distance (km) Brightness Sun altitude
Rises 00:16:52 0° 356° (N) 2,147 7.7 -15.9°
Reaches altitude 10° 00:18:57 10° 7° (N) 1,304 6.6 -15.8°
Maximum altitude 00:21:31 31° 73° (ENE) 636 4.0 -15.7°
Enters shadow 00:23:11 17° 128° (SE) 975 4.4 -15.6°
